GEFSSE_prec_meanprecacc_012.txt.gz
Total_Precipitation_Accumulation
0.00 0.00 0.00 0.00 0.00 0.00 0.00 0.00 0.01 0.01 0.00 0.00 0.00 0.00 0.00 0.00 0.00 0.00 0.00 0.00 0.00 0.01 0.01 0.01 0.01 0.02 0.02 0.01 0.01 0.00 0.00 0.00 0.00 0.00 0.01 0.01 0.01 0.01 0.02 0.02 0.09 0.11 0.01
0.00 0.00 0.00 0.00 0.00 0.00 0.00 0.00 0.01 0.01 0.00 0.00 0.00 0.00 0.00 0.00 0.00 0.00 0.00 0.00 0.00 0.01 0.01 0.00 0.01 0.01 0.01 0.01 0.00 0.00 0.00 0.00 0.00 0.00 0.00 0.00 0.00 0.00 0.00 0.01 0.07 0.12 0.01
0.00 0.00 0.00 0.00 0.00 0.00 0.00 0.00 0.00 0.00 0.00 0.00 0.00 0.00 0.00 0.00 0.00 0.00 0.00 0.00 0.00 0.00 0.00 0.00 0.00 0.00 0.00 0.00 0.00 0.00 0.00 0.00 0.00 0.00 0.00 0.02 0.01 0.00 0.00 0.00 0.01 0.01 0.00
0.00 0.00 0.00 0.00 0.00 0.00 0.00 0.00 0.00 0.00 0.00 0.00 0.00 0.00 0.00 0.00 0.00 0.00 0.00 0.00 0.00 0.00 0.00 0.00 0.00 0.00 0.00 0.00 0.00 0.00 0.00 0.00 0.00 0.00 0.02 0.22 0.17 0.02 0.01 0.00 0.00 0.00 0.00
0.00 0.00 0.00 0.00 0.00 0.00 0.00 0.00 0.00 0.00 0.00 0.00 0.00 0.00 0.00 0.00 0.00 0.00 0.00 0.00 0.00 0.00 0.00 0.00 0.00 0.00 0.00 0.00 0.00 0.00 0.00 0.00 0.00 0.00 0.03 0.18 0.18 0.08 0.02 0.00 0.00 0.00 0.00
0.00 0.00 0.00 0.00 0.00 0.00 0.00 0.00 0.00 0.00 0.00 0.00 0.00 0.00 0.00 0.00 0.00 0.00 0.00 0.00 0.00 0.00 0.00 0.00 0.00 0.00 0.00 0.00 0.00 0.00 0.00 0.00 0.00 0.00 0.00 0.03 0.07 0.10 0.04 0.02 0.00 0.00 0.00
0.00 0.00 0.00 0.00 0.00 0.00 0.00 0.00 0.00 0.00 0.00 0.00 0.00 0.00 0.00 0.00 0.00 0.00 0.00 0.00 0.00 0.00 0.00 0.00 0.01 0.01 0.02 0.02 0.02 0.02 0.01 0.00 0.00 0.00 0.00 0.01 0.03 0.06 0.06 0.03 0.01 0.00 0.00
0.00 0.00 0.00 0.00 0.00 0.00 0.00 0.00 0.00 0.00 0.00 0.00 0.00 0.00 0.00 0.00 0.00 0.00 0.00 0.00 0.00 0.00 0.00 0.00 0.00 0.00 0.01 0.02 0.03 0.04 0.04 0.02 0.01 0.01 0.00 0.02 0.13 0.11 0.13 0.08 0.04 0.03 0.03
0.00 0.00 0.00 0.00 0.00 0.00 0.00 0.00 0.00 0.00 0.00 0.00 0.00 0.00 0.00 0.00 0.00 0.00 0.00 0.00 0.00 0.00 0.00 0.00 0.00 0.00 0.00 0.01 0.02 0.02 0.03 0.02 0.00 0.02 0.01 0.01 0.11 0.15 0.19 0.12 0.07 0.08 0.10
0.00 0.00 0.00 0.00 0.00 0.00 0.00 0.00 0.00 0.00 0.00 0.00 0.00 0.00 0.00 0.00 0.00 0.00 0.00 0.01 0.01 0.01 0.01 0.01 0.00 0.01 0.01 0.03 0.05 0.07 0.08 0.03 0.00 0.00 0.00 0.01 0.07 0.19 0.24 0.16 0.09 0.10 0.14
0.00 0.00 0.00 0.00 0.00 0.00 0.00 0.00 0.00 0.00 0.00 0.01 0.00 0.00 0.00 0.00 0.02 0.04 0.07 0.08 0.08 0.08 0.08 0.07 0.06 0.06 0.06 0.04 0.11 0.17 0.11 0.01 0.00 0.00 0.00 0.02 0.08 0.23 0.23 0.17 0.13 0.11 0.12
0.00 0.00 0.00 0.00 0.00 0.00 0.00 0.00 0.00 0.00 0.00 0.01 0.02 0.06 0.08 0.08 0.06 0.07 0.17 0.17 0.23 0.28 0.22 0.19 0.25 0.21 0.11 0.07 0.17 0.30 0.16 0.07 0.03 0.02 0.02 0.03 0.08 0.24 0.29 0.20 0.16 0.14 0.11
0.00 0.00 0.00 0.00 0.00 0.00 0.00 0.00 0.00 0.00 0.01 0.02 0.06 0.13 0.21 0.20 0.18 0.18 0.32 0.40 0.37 0.30 0.18 0.27 0.38 0.27 0.19 0.17 0.14 0.19 0.24 0.19 0.11 0.09 0.11 0.11 0.15 0.30 0.35 0.22 0.20 0.18 0.09
0.00 0.00 0.01 0.00 0.00 0.00 0.00 0.00 0.00 0.00 0.01 0.02 0.07 0.19 0.28 0.27 0.19 0.25 0.37 0.30 0.23 0.19 0.25 0.24 0.28 0.21 0.18 0.16 0.16 0.20 0.28 0.28 0.22 0.22 0.29 0.33 0.28 0.31 0.33 0.26 0.23 0.18 0.11
0.02 0.03 0.03 0.01 0.01 0.01 0.02 0.03 0.03 0.04 0.04 0.05 0.10 0.27 0.35 0.31 0.32 0.33 0.30 0.23 0.15 0.24 0.36 0.31 0.22 0.18 0.20 0.24 0.29 0.36 0.36 0.27 0.22 0.19 0.21 0.35 0.32 0.28 0.31 0.31 0.31 0.24 0.21
0.12 0.17 0.16 0.10 0.06 0.06 0.09 0.14 0.19 0.21 0.23 0.25 0.24 0.27 0.36 0.39 0.39 0.38 0.38 0.31 0.30 0.35 0.38 0.26 0.18 0.19 0.20 0.23 0.19 0.18 0.20 0.22 0.21 0.15 0.12 0.18 0.27 0.24 0.25 0.30 0.33 0.30 0.30
0.42 0.56 0.61 0.49 0.37 0.33 0.34 0.30 0.27 0.26 0.27 0.27 0.30 0.25 0.26 0.34 0.31 0.36 0.36 0.33 0.37 0.34 0.29 0.21 0.15 0.14 0.14 0.13 0.08 0.05 0.04 0.06 0.06 0.06 0.05 0.05 0.11 0.21 0.23 0.27 0.29 0.27 0.28
1.04 1.33 1.44 1.30 1.01 0.65 0.43 0.30 0.22 0.19 0.21 0.17 0.16 0.14 0.10 0.12 0.13 0.17 0.19 0.22 0.21 0.21 0.21 0.15 0.10 0.07 0.06 0.05 0.03 0.02 0.01 0.02 0.04 0.03 0.03 0.02 0.03 0.09 0.25 0.34 0.35 0.30 0.29
2.33 2.74 2.55 1.97 1.41 0.83 0.45 0.24 0.18 0.14 0.13 0.09 0.07 0.05 0.03 0.02 0.02 0.06 0.08 0.10 0.10 0.12 0.13 0.09 0.06 0.05 0.03 0.03 0.02 0.02 0.02 0.02 0.03 0.03 0.03 0.04 0.04 0.05 0.08 0.16 0.27 0.28 0.32
3.08 3.64 3.43 2.64 1.73 1.08 0.69 0.43 0.22 0.11 0.06 0.03 0.02 0.02 0.01 0.00 0.00 0.01 0.02 0.02 0.02 0.02 0.03 0.05 0.06 0.06 0.04 0.04 0.03 0.02 0.03 0.02 0.02 0.06 0.06 0.03 0.03 0.04 0.06 0.06 0.13 0.19 0.27
2.53 2.93 2.89 2.20 1.53 1.05 0.63 0.30 0.15 0.08 0.03 0.01 0.01 0.00 0.00 0.00 0.00 0.00 0.00 0.00 0.00 0.00 0.00 0.00 0.01 0.02 0.02 0.03 0.04 0.02 0.02 0.02 0.03 0.06 0.06 0.02 0.04 0.11 0.15 0.11 0.12 0.23 0.29
1.63 1.72 1.34 0.99 0.74 0.52 0.33 0.20 0.12 0.06 0.03 0.01 0.01 0.00 0.00 0.00 0.00 0.00 0.00 0.00 0.00 0.00 0.00 0.00 0.00 0.00 0.00 0.00 0.01 0.01 0.00 0.00 0.01 0.03 0.06 0.07 0.08 0.15 0.19 0.18 0.20 0.24 0.24
1.02 0.89 0.59 0.42 0.39 0.31 0.22 0.12 0.08 0.05 0.02 0.01 0.01 0.01 0.01 0.00 0.00 0.00 0.00 0.00 0.00 0.00 0.00 0.00 0.00 0.01 0.00 0.00 0.00 0.01 0.01 0.00 0.00 0.02 0.06 0.09 0.11 0.14 0.14 0.17 0.18 0.18 0.22
0.47 0.46 0.48 0.46 0.33 0.22 0.17 0.09 0.05 0.03 0.02 0.01 0.02 0.01 0.01 0.01 0.00 0.00 0.00 0.00 0.00 0.00 0.00 0.00 0.00 0.01 0.01 0.01 0.01 0.01 0.02 0.03 0.04 0.03 0.05 0.11 0.14 0.13 0.12 0.12 0.11 0.14 0.19
0.28 0.45 0.65 0.61 0.39 0.24 0.18 0.13 0.12 0.10 0.09 0.06 0.05 0.04 0.03 0.02 0.02 0.01 0.00 0.00 0.00 0.00 0.00 0.00 0.00 0.01 0.02 0.02 0.03 0.03 0.03 0.04 0.08 0.09 0.05 0.07 0.13 0.08 0.06 0.05 0.04 0.07 0.11
0.26 0.33 0.41 0.48 0.54 0.48 0.42 0.31 0.27 0.24 0.20 0.15 0.13 0.11 0.09 0.07 0.06 0.03 0.01 0.01 0.01 0.00 0.00 0.00 0.01 0.02 0.03 0.04 0.06 0.06 0.05 0.04 0.05 0.10 0.10 0.09 0.08 0.03 0.04 0.07 0.08 0.11 0.15

GEFSSE_prec_meanprecacc_018.txt.gz
Total_Precipitation_Accumulation
0.00 0.00 0.00 0.00 0.00 0.00 0.00 0.00 0.01 0.01 0.00 0.00 0.00 0.00 0.00 0.00 0.00 0.00 0.00 0.00 0.00 0.01 0.01 0.01 0.01 0.02 0.02 0.01 0.01 0.00 0.00 0.00 0.00 0.00 0.01 0.03 0.04 0.03 0.03 0.03 0.09 0.11 0.02
0.00 0.00 0.00 0.00 0.00 0.00 0.00 0.00 0.01 0.01 0.00 0.00 0.00 0.00 0.00 0.00 0.00 0.00 0.00 0.00 0.00 0.01 0.01 0.01 0.01 0.01 0.01 0.01 0.00 0.00 0.00 0.00 0.00 0.00 0.00 0.01 0.03 0.05 0.03 0.01 0.07 0.12 0.03
0.00 0.00 0.00 0.00 0.00 0.00 0.00 0.00 0.00 0.00 0.00 0.00 0.00 0.00 0.00 0.00 0.00 0.00 0.00 0.00 0.00 0.00 0.00 0.00 0.00 0.00 0.00 0.00 0.00 0.00 0.00 0.00 0.00 0.00 0.00 0.02 0.02 0.05 0.06 0.01 0.01 0.02 0.01
0.00 0.00 0.00 0.00 0.00 0.00 0.00 0.00 0.00 0.00 0.00 0.00 0.00 0.00 0.00 0.00 0.00 0.00 0.00 0.00 0.00 0.00 0.00 0.00 0.00 0.00 0.00 0.00 0.00 0.00 0.00 0.00 0.00 0.00 0.02 0.22 0.17 0.03 0.04 0.02 0.00 0.00 0.00
0.00 0.00 0.00 0.00 0.00 0.00 0.00 0.00 0.00 0.00 0.00 0.00 0.00 0.00 0.00 0.00 0.00 0.00 0.00 0.00 0.00 0.00 0.00 0.00 0.00 0.00 0.00 0.00 0.00 0.00 0.00 0.00 0.00 0.00 0.03 0.19 0.18 0.08 0.03 0.01 0.00 0.00 0.00
0.00 0.00 0.00 0.00 0.00 0.00 0.00 0.00 0.00 0.00 0.00 0.00 0.00 0.00 0.00 0.00 0.00 0.00 0.00 0.00 0.00 0.00 0.00 0.00 0.00 0.01 0.00 0.00 0.00 0.00 0.00 0.00 0.00 0.00 0.01 0.04 0.07 0.11 0.05 0.02 0.00 0.00 0.00
0.00 0.00 0.00 0.00 0.00 0.00 0.00 0.00 0.00 0.00 0.00 0.00 0.00 0.00 0.00 0.00 0.00 0.00 0.00 0.00 0.00 0.00 0.00 0.00 0.01 0.01 0.02 0.02 0.02 0.02 0.01 0.00 0.00 0.00 0.00 0.03 0.04 0.07 0.09 0.05 0.01 0.00 0.00
0.00 0.00 0.00 0.00 0.00 0.00 0.00 0.00 0.00 0.00 0.00 0.00 0.00 0.00 0.00 0.00 0.00 0.00 0.00 0.00 0.00 0.00 0.00 0.00 0.00 0.00 0.01 0.02 0.03 0.04 0.04 0.02 0.01 0.01 0.01 0.03 0.14 0.12 0.18 0.13 0.07 0.03 0.03
0.00 0.00 0.00 0.00 0.00 0.01 0.01 0.00 0.00 0.01 0.01 0.00 0.00 0.00 0.00 0.00 0.00 0.00 0.00 0.00 0.00 0.00 0.00 0.00 0.00 0.00 0.01 0.01 0.02 0.02 0.03 0.02 0.01 0.02 0.01 0.01 0.11 0.18 0.31 0.24 0.15 0.13 0.12
0.00 0.00 0.00 0.00 0.00 0.01 0.01 0.01 0.01 0.01 0.01 0.01 0.01 0.00 0.00 0.00 0.00 0.00 0.00 0.01 0.02 0.01 0.01 0.01 0.01 0.01 0.02 0.03 0.05 0.07 0.09 0.04 0.01 0.02 0.01 0.01 0.07 0.22 0.37 0.34 0.23 0.21 0.23
0.00 0.00 0.01 0.01 0.01 0.01 0.01 0.01 0.02 0.02 0.02 0.02 0.02 0.01 0.01 0.01 0.02 0.05 0.07 0.08 0.08 0.09 0.09 0.08 0.08 0.07 0.08 0.05 0.12 0.18 0.12 0.01 0.01 0.01 0.01 0.02 0.09 0.28 0.37 0.40 0.32 0.25 0.25
0.00 0.01 0.01 0.01 0.02 0.03 0.03 0.04 0.04 0.04 0.04 0.04 0.03 0.06 0.09 0.08 0.06 0.07 0.17 0.18 0.26 0.36 0.33 0.33 0.44 0.36 0.20 0.10 0.19 0.31 0.17 0.08 0.04 0.04 0.03 0.06 0.13 0.30 0.39 0.36 0.33 0.31 0.26
0.00 0.01 0.02 0.02 0.02 0.03 0.05 0.05 0.05 0.05 0.05 0.05 0.08 0.14 0.21 0.21 0.19 0.19 0.34 0.42 0.46 0.47 0.35 0.49 0.69 0.43 0.29 0.26 0.23 0.25 0.29 0.24 0.16 0.16 0.15 0.16 0.23 0.41 0.48 0.35 0.35 0.35 0.24
0.04 0.08 0.11 0.08 0.06 0.05 0.05 0.05 0.05 0.05 0.05 0.07 0.12 0.23 0.33 0.34 0.31 0.38 0.48 0.38 0.33 0.34 0.45 0.47 0.50 0.37 0.29 0.27 0.30 0.35 0.46 0.42 0.32 0.30 0.34 0.39 0.41 0.47 0.50 0.41 0.37 0.36 0.28
0.15 0.27 0.31 0.27 0.21 0.16 0.11 0.09 0.08 0.10 0.12 0.16 0.23 0.41 0.51 0.52 0.56 0.60 0.52 0.39 0.28 0.41 0.56 0.56 0.47 0.42 0.45 0.53 0.56 0.63 0.65 0.44 0.32 0.26 0.25 0.41 0.46 0.44 0.48 0.50 0.48 0.44 0.42
0.37 0.53 0.60 0.65 0.63 0.53 0.41 0.34 0.37 0.40 0.42 0.48 0.50 0.56 0.65 0.67 0.68 0.63 0.57 0.45 0.41 0.47 0.51 0.44 0.36 0.38 0.40 0.41 0.35 0.33 0.35 0.33 0.31 0.21 0.15 0.20 0.31 0.32 0.36 0.44 0.50 0.49 0.53
0.81 1.06 1.22 1.27 1.27 1.24 1.12 0.92 0.78 0.70 0.68 0.69 0.69 0.60 0.58 0.60 0.55 0.55 0.48 0.42 0.45 0.41 0.37 0.32 0.26 0.22 0.21 0.19 0.12 0.09 0.09 0.10 0.10 0.08 0.07 0.06 0.12 0.22 0.27 0.33 0.39 0.42 0.46
1.54 1.97 2.21 2.21 2.07 1.76 1.48 1.29 1.14 1.03 0.96 0.81 0.68 0.52 0.36 0.33 0.28 0.28 0.25 0.25 0.23 0.22 0.23 0.18 0.14 0.10 0.09 0.07 0.05 0.03 0.03 0.03 0.04 0.04 0.04 0.03 0.04 0.10 0.26 0.35 0.39 0.38 0.42
2.74 3.27 3.22 2.83 2.52 2.01 1.54 1.31 1.26 1.26 1.11 0.86 0.65 0.46 0.30 0.20 0.14 0.14 0.13 0.12 0.11 0.12 0.13 0.09 0.06 0.05 0.03 0.03 0.02 0.02 0.02 0.02 0.03 0.03 0.03 0.04 0.04 0.05 0.09 0.16 0.28 0.32 0.38
3.31 4.00 3.95 3.31 2.63 2.11 1.75 1.48 1.30 1.22 1.02 0.73 0.49 0.33 0.24 0.15 0.09 0.06 0.04 0.03 0.02 0.02 0.03 0.05 0.06 0.06 0.04 0.04 0.03 0.02 0.03 0.02 0.02 0.06 0.06 0.03 0.03 0.04 0.06 0.07 0.14 0.20 0.29
2.64 3.10 3.12 2.51 2.02 1.71 1.41 1.03 0.84 0.78 0.64 0.43 0.30 0.21 0.14 0.10 0.06 0.04 0.01 0.00 0.00 0.00 0.00 0.00 0.01 0.02 0.02 0.03 0.04 0.02 0.02 0.02 0.03 0.06 0.06 0.02 0.04 0.11 0.15 0.11 0.12 0.23 0.29
1.66 1.75 1.38 1.10 0.92 0.78 0.67 0.49 0.38 0.33 0.28 0.21 0.17 0.12 0.09 0.07 0.05 0.04 0.01 0.00 0.00 0.00 0.00 0.00 0.00 0.00 0.00 0.00 0.01 0.01 0.00 0.00 0.01 0.03 0.06 0.07 0.08 0.15 0.19 0.18 0.20 0.24 0.24
1.04 0.90 0.61 0.47 0.47 0.41 0.33 0.23 0.20 0.17 0.15 0.12 0.11 0.10 0.09 0.06 0.04 0.03 0.02 0.01 0.00 0.00 0.00 0.00 0.00 0.01 0.00 0.00 0.00 0.01 0.01 0.00 0.00 0.02 0.06 0.09 0.11 0.14 0.14 0.17 0.18 0.18 0.22
0.47 0.48 0.51 0.52 0.41 0.30 0.26 0.18 0.14 0.11 0.10 0.09 0.10 0.10 0.10 0.08 0.06 0.04 0.03 0.02 0.01 0.00 0.00 0.00 0.00 0.01 0.01 0.01 0.01 0.01 0.02 0.03 0.04 0.03 0.05 0.11 0.14 0.13 0.12 0.12 0.11 0.14 0.19
0.28 0.47 0.68 0.66 0.45 0.31 0.27 0.23 0.21 0.19 0.18 0.17 0.16 0.16 0.15 0.14 0.12 0.08 0.06 0.06 0.05 0.02 0.01 0.00 0.01 0.01 0.02 0.02 0.03 0.03 0.03 0.04 0.08 0.10 0.05 0.07 0.13 0.08 0.06 0.05 0.04 0.07 0.11
0.26 0.33 0.42 0.49 0.56 0.51 0.46 0.36 0.33 0.32 0.30 0.27 0.25 0.24 0.23 0.23 0.24 0.20 0.17 0.17 0.18 0.12 0.06 0.03 0.02 0.02 0.03 0.04 0.06 0.06 0.05 0.04 0.05 0.10 0.10 0.09 0.08 0.03 0.04 0.07 0.08 0.11 0.15

GEFSSE_prec_meanprecacc_024.txt.gz
Total_Precipitation_Accumulation
0.00 0.00 0.00 0.00 0.00 0.00 0.00 0.00 0.01 0.01 0.00 0.00 0.00 0.00 0.00 0.00 0.00 0.00 0.00 0.00 0.00 0.01 0.01 0.01 0.02 0.02 0.02 0.01 0.01 0.01 0.01 0.01 0.01 0.01 0.01 0.03 0.05 0.06 0.06 0.06 0.12 0.15 0.05
0.00 0.00 0.00 0.00 0.00 0.00 0.00 0.00 0.01 0.01 0.00 0.00 0.00 0.00 0.00 0.00 0.00 0.00 0.00 0.00 0.00 0.01 0.01 0.01 0.01 0.02 0.01 0.01 0.00 0.00 0.00 0.00 0.00 0.00 0.01 0.01 0.04 0.07 0.04 0.01 0.10 0.16 0.05
0.00 0.00 0.00 0.00 0.00 0.00 0.00 0.00 0.00 0.00 0.00 0.00 0.00 0.00 0.00 0.00 0.00 0.00 0.00 0.00 0.00 0.00 0.01 0.01 0.01 0.01 0.01 0.00 0.00 0.00 0.00 0.00 0.00 0.01 0.01 0.03 0.03 0.05 0.06 0.01 0.01 0.03 0.02
0.00 0.00 0.00 0.00 0.00 0.00 0.00 0.00 0.00 0.00 0.00 0.00 0.00 0.00 0.00 0.00 0.00 0.00 0.00 0.00 0.00 0.01 0.01 0.01 0.01 0.01 0.01 0.00 0.00 0.00 0.00 0.01 0.01 0.01 0.04 0.23 0.19 0.04 0.05 0.02 0.01 0.01 0.01
0.00 0.00 0.00 0.00 0.00 0.00 0.00 0.00 0.00 0.00 0.00 0.00 0.00 0.00 0.00 0.00 0.01 0.01 0.01 0.01 0.01 0.02 0.02 0.02 0.01 0.01 0.01 0.01 0.00 0.00 0.00 0.00 0.01 0.01 0.03 0.20 0.23 0.11 0.04 0.02 0.01 0.00 0.00
0.00 0.00 0.00 0.00 0.00 0.00 0.00 0.00 0.00 0.00 0.00 0.00 0.00 0.00 0.00 0.01 0.01 0.01 0.01 0.01 0.01 0.02 0.02 0.02 0.01 0.01 0.01 0.01 0.00 0.00 0.00 0.00 0.01 0.01 0.01 0.04 0.09 0.12 0.07 0.03 0.01 0.00 0.00
0.00 0.00 0.00 0.01 0.00 0.00 0.00 0.00 0.00 0.00 0.00 0.00 0.00 0.00 0.00 0.00 0.01 0.01 0.01 0.01 0.01 0.01 0.01 0.01 0.01 0.02 0.02 0.02 0.02 0.02 0.01 0.00 0.00 0.02 0.02 0.04 0.05 0.08 0.11 0.07 0.03 0.01 0.01
0.00 0.00 0.00 0.01 0.01 0.01 0.01 0.00 0.00 0.00 0.00 0.00 0.00 0.00 0.00 0.00 0.00 0.00 0.00 0.00 0.00 0.00 0.00 0.00 0.00 0.00 0.01 0.02 0.03 0.04 0.04 0.02 0.01 0.02 0.02 0.06 0.16 0.13 0.22 0.19 0.09 0.04 0.04
0.00 0.00 0.01 0.01 0.02 0.02 0.01 0.01 0.01 0.01 0.01 0.00 0.00 0.00 0.00 0.00 0.00 0.00 0.00 0.00 0.00 0.00 0.00 0.00 0.00 0.00 0.01 0.02 0.03 0.03 0.03 0.02 0.01 0.02 0.01 0.03 0.12 0.19 0.41 0.41 0.27 0.17 0.13
0.00 0.01 0.01 0.02 0.03 0.04 0.04 0.03 0.02 0.02 0.01 0.01 0.01 0.00 0.00 0.00 0.00 0.00 0.00 0.01 0.02 0.01 0.01 0.01 0.01 0.01 0.02 0.04 0.06 0.08 0.10 0.05 0.01 0.02 0.01 0.01 0.08 0.24 0.48 0.55 0.48 0.41 0.32
0.01 0.01 0.02 0.03 0.05 0.07 0.07 0.06 0.06 0.07 0.06 0.04 0.03 0.02 0.01 0.01 0.02 0.05 0.07 0.08 0.08 0.09 0.09 0.09 0.08 0.08 0.09 0.06 0.13 0.20 0.15 0.03 0.01 0.02 0.01 0.03 0.10 0.29 0.44 0.55 0.53 0.48 0.46
0.01 0.02 0.03 0.04 0.06 0.07 0.09 0.10 0.12 0.12 0.13 0.11 0.09 0.11 0.12 0.11 0.08 0.08 0.17 0.19 0.27 0.36 0.34 0.34 0.47 0.40 0.22 0.11 0.22 0.34 0.19 0.09 0.05 0.04 0.04 0.07 0.14 0.32 0.43 0.44 0.46 0.48 0.47
0.01 0.02 0.02 0.03 0.04 0.07 0.11 0.11 0.12 0.13 0.14 0.15 0.20 0.25 0.32 0.30 0.25 0.24 0.37 0.45 0.47 0.48 0.37 0.53 0.75 0.46 0.33 0.31 0.30 0.31 0.32 0.27 0.17 0.17 0.16 0.17 0.25 0.45 0.53 0.41 0.43 0.47 0.42
0.07 0.12 0.13 0.09 0.07 0.07 0.09 0.09 0.10 0.11 0.13 0.16 0.24 0.38 0.51 0.50 0.42 0.48 0.56 0.44 0.38 0.38 0.49 0.54 0.60 0.45 0.37 0.36 0.41 0.47 0.55 0.46 0.33 0.31 0.35 0.40 0.44 0.54 0.59 0.51 0.48 0.46 0.42
0.22 0.36 0.39 0.33 0.26 0.19 0.13 0.11 0.11 0.14 0.16 0.23 0.35 0.57 0.72 0.73 0.73 0.78 0.66 0.52 0.38 0.51 0.67 0.67 0.58 0.54 0.56 0.65 0.72 0.77 0.76 0.52 0.35 0.28 0.27 0.42 0.50 0.51 0.56 0.59 0.60 0.57 0.58
0.44 0.62 0.70 0.76 0.71 0.58 0.44 0.37 0.39 0.42 0.45 0.54 0.60 0.70 0.85 0.88 0.88 0.83 0.74 0.62 0.57 0.67 0.79 0.70 0.60 0.62 0.62 0.61 0.49 0.44 0.45 0.43 0.38 0.26 0.18 0.24 0.35 0.36 0.41 0.50 0.57 0.59 0.66
0.87 1.14 1.31 1.34 1.32 1.28 1.15 0.94 0.80 0.73 0.73 0.76 0.80 0.75 0.77 0.81 0.78 0.81 0.73 0.64 0.67 0.68 0.67 0.61 0.56 0.54 0.47 0.40 0.29 0.23 0.21 0.20 0.18 0.15 0.10 0.09 0.15 0.24 0.28 0.35 0.43 0.46 0.52
1.58 2.01 2.26 2.25 2.11 1.78 1.49 1.31 1.17 1.08 1.03 0.92 0.84 0.71 0.57 0.58 0.60 0.61 0.53 0.49 0.47 0.48 0.45 0.40 0.37 0.37 0.37 0.37 0.32 0.25 0.22 0.19 0.14 0.10 0.08 0.06 0.07 0.11 0.26 0.36 0.40 0.39 0.44
2.76 3.29 3.25 2.84 2.53 2.01 1.55 1.33 1.30 1.33 1.25 1.09 0.96 0.80 0.62 0.52 0.50 0.51 0.44 0.37 0.31 0.29 0.27 0.22 0.21 0.22 0.22 0.24 0.23 0.22 0.20 0.19 0.14 0.10 0.08 0.07 0.07 0.07 0.10 0.18 0.29 0.32 0.38
3.32 4.01 3.96 3.32 2.63 2.11 1.77 1.54 1.38 1.32 1.20 1.04 0.93 0.79 0.63 0.50 0.45 0.40 0.33 0.26 0.19 0.16 0.13 0.13 0.14 0.15 0.13 0.13 0.10 0.09 0.10 0.08 0.07 0.09 0.07 0.04 0.04 0.05 0.06 0.07 0.14 0.20 0.29
2.64 3.11 3.13 2.51 2.02 1.71 1.43 1.07 0.90 0.87 0.78 0.69 0.66 0.60 0.53 0.47 0.41 0.34 0.25 0.19 0.14 0.10 0.06 0.05 0.05 0.06 0.06 0.07 0.07 0.05 0.04 0.03 0.04 0.06 0.06 0.03 0.04 0.11 0.15 0.12 0.13 0.23 0.29
1.66 1.75 1.38 1.10 0.92 0.78 0.68 0.51 0.41 0.37 0.34 0.31 0.30 0.30 0.28 0.31 0.32 0.29 0.23 0.17 0.13 0.09 0.05 0.03 0.03 0.02 0.02 0.02 0.02 0.02 0.01 0.01 0.01 0.03 0.06 0.07 0.08 0.15 0.19 0.18 0.20 0.25 0.24
1.04 0.90 0.61 0.47 0.47 0.41 0.33 0.25 0.22 0.20 0.20 0.20 0.20 0.19 0.19 0.19 0.20 0.20 0.19 0.17 0.12 0.08 0.06 0.04 0.02 0.02 0.01 0.01 0.00 0.01 0.01 0.00 0.00 0.02 0.06 0.09 0.11 0.14 0.14 0.17 0.18 0.18 0.23
0.47 0.48 0.51 0.52 0.41 0.30 0.26 0.19 0.14 0.13 0.12 0.13 0.14 0.15 0.17 0.15 0.14 0.13 0.14 0.14 0.12 0.10 0.08 0.05 0.03 0.03 0.02 0.01 0.01 0.01 0.02 0.03 0.04 0.03 0.05 0.11 0.14 0.13 0.12 0.12 0.11 0.14 0.19
0.28 0.47 0.68 0.66 0.45 0.31 0.27 0.23 0.21 0.19 0.18 0.17 0.17 0.18 0.19 0.20 0.19 0.17 0.15 0.15 0.12 0.12 0.11 0.08 0.06 0.05 0.04 0.03 0.03 0.03 0.03 0.04 0.08 0.10 0.05 0.07 0.13 0.08 0.06 0.05 0.04 0.07 0.11
0.26 0.33 0.42 0.49 0.56 0.51 0.46 0.37 0.33 0.32 0.30 0.27 0.26 0.24 0.25 0.26 0.28 0.27 0.26 0.28 0.29 0.22 0.14 0.10 0.08 0.07 0.06 0.06 0.06 0.06 0.05 0.04 0.05 0.10 0.10 0.09 0.08 0.03 0.04 0.07 0.08 0.11 0.15

GEFSSE_prec_meanprecacc_030.txt.gz
Total_Precipitation_Accumulation
0.00 0.00 0.00 0.00 0.00 0.00 0.00 0.00 0.01 0.01 0.00 0.01 0.01 0.01 0.01 0.01 0.01 0.00 0.00 0.00 0.00 0.01 0.01 0.01 0.02 0.02 0.02 0.01 0.01 0.01 0.02 0.01 0.01 0.01 0.01 0.03 0.05 0.06 0.06 0.07 0.20 0.22 0.09
0.00 0.00 0.00 0.00 0.00 0.00 0.00 0.00 0.01 0.01 0.00 0.00 0.01 0.01 0.01 0.01 0.01 0.00 0.00 0.00 0.00 0.01 0.01 0.01 0.02 0.02 0.02 0.01 0.01 0.00 0.00 0.00 0.00 0.00 0.01 0.01 0.04 0.07 0.04 0.04 0.18 0.23 0.07
0.00 0.00 0.00 0.00 0.00 0.00 0.00 0.00 0.00 0.00 0.00 0.00 0.00 0.00 0.01 0.01 0.00 0.00 0.00 0.00 0.00 0.01 0.01 0.02 0.02 0.02 0.01 0.01 0.00 0.00 0.00 0.00 0.00 0.01 0.03 0.07 0.04 0.05 0.06 0.03 0.05 0.04 0.03
0.00 0.00 0.00 0.00 0.00 0.00 0.00 0.00 0.00 0.00 0.00 0.00 0.00 0.00 0.00 0.00 0.00 0.00 0.00 0.01 0.01 0.01 0.02 0.02 0.02 0.02 0.01 0.00 0.00 0.00 0.00 0.01 0.01 0.02 0.15 0.30 0.20 0.04 0.05 0.02 0.01 0.02 0.02
0.00 0.00 0.00 0.00 0.00 0.00 0.00 0.00 0.00 0.00 0.00 0.00 0.00 0.00 0.00 0.01 0.01 0.01 0.01 0.01 0.01 0.02 0.03 0.02 0.02 0.02 0.01 0.01 0.00 0.00 0.00 0.00 0.01 0.02 0.10 0.25 0.32 0.12 0.04 0.02 0.01 0.01 0.01
0.00 0.00 0.00 0.00 0.00 0.00 0.00 0.00 0.00 0.00 0.00 0.00 0.00 0.00 0.01 0.01 0.01 0.02 0.02 0.02 0.02 0.03 0.03 0.03 0.02 0.02 0.01 0.01 0.00 0.00 0.00 0.00 0.01 0.03 0.04 0.08 0.16 0.14 0.07 0.03 0.01 0.01 0.01
0.00 0.00 0.00 0.01 0.00 0.00 0.00 0.00 0.00 0.00 0.00 0.00 0.00 0.00 0.00 0.01 0.01 0.01 0.02 0.01 0.01 0.02 0.02 0.02 0.02 0.02 0.02 0.02 0.02 0.02 0.01 0.00 0.01 0.03 0.03 0.05 0.10 0.09 0.11 0.07 0.03 0.01 0.01
0.00 0.00 0.00 0.01 0.01 0.01 0.01 0.00 0.00 0.01 0.01 0.01 0.00 0.00 0.00 0.00 0.01 0.01 0.01 0.01 0.01 0.01 0.01 0.01 0.01 0.01 0.01 0.02 0.03 0.04 0.04 0.02 0.01 0.02 0.02 0.06 0.17 0.13 0.22 0.19 0.09 0.04 0.04
0.00 0.00 0.01 0.01 0.02 0.02 0.01 0.01 0.01 0.01 0.01 0.01 0.00 0.00 0.00 0.00 0.00 0.00 0.01 0.01 0.01 0.01 0.01 0.01 0.01 0.00 0.01 0.02 0.03 0.03 0.03 0.02 0.01 0.02 0.01 0.03 0.12 0.19 0.41 0.41 0.28 0.17 0.13
0.00 0.01 0.01 0.02 0.03 0.04 0.04 0.03 0.02 0.02 0.02 0.01 0.01 0.00 0.00 0.00 0.00 0.00 0.00 0.01 0.02 0.02 0.02 0.01 0.01 0.01 0.02 0.04 0.06 0.08 0.10 0.05 0.01 0.02 0.01 0.01 0.08 0.24 0.48 0.56 0.50 0.43 0.33
0.01 0.01 0.02 0.04 0.05 0.07 0.08 0.08 0.08 0.08 0.07 0.05 0.03 0.02 0.01 0.01 0.02 0.05 0.07 0.08 0.08 0.10 0.10 0.10 0.09 0.09 0.09 0.06 0.13 0.21 0.16 0.03 0.01 0.02 0.01 0.03 0.10 0.29 0.44 0.56 0.55 0.53 0.51
0.01 0.02 0.03 0.04 0.06 0.08 0.10 0.15 0.20 0.19 0.22 0.20 0.19 0.19 0.18 0.14 0.09 0.08 0.19 0.22 0.29 0.37 0.34 0.35 0.48 0.41 0.24 0.13 0.25 0.37 0.19 0.09 0.05 0.04 0.04 0.07 0.15 0.32 0.43 0.44 0.47 0.51 0.53
0.01 0.02 0.03 0.03 0.05 0.08 0.12 0.15 0.19 0.20 0.29 0.34 0.42 0.52 0.56 0.47 0.34 0.27 0.42 0.51 0.52 0.52 0.40 0.55 0.77 0.47 0.34 0.34 0.38 0.42 0.35 0.28 0.18 0.17 0.17 0.18 0.26 0.46 0.53 0.41 0.43 0.48 0.45
0.08 0.12 0.14 0.09 0.07 0.08 0.11 0.12 0.13 0.14 0.20 0.26 0.43 0.66 0.82 0.78 0.64 0.64 0.70 0.56 0.50 0.48 0.59 0.62 0.69 0.52 0.44 0.43 0.48 0.56 0.65 0.51 0.35 0.31 0.37 0.43 0.46 0.55 0.59 0.51 0.48 0.47 0.44
0.26 0.39 0.41 0.34 0.27 0.21 0.16 0.15 0.14 0.17 0.20 0.29 0.45 0.74 0.95 0.99 0.98 1.05 0.90 0.73 0.54 0.68 0.88 0.84 0.70 0.70 0.73 0.81 0.85 0.89 0.86 0.60 0.40 0.33 0.38 0.57 0.57 0.54 0.57 0.60 0.61 0.58 0.60
0.51 0.68 0.73 0.77 0.73 0.60 0.47 0.40 0.42 0.44 0.48 0.57 0.65 0.78 1.00 1.08 1.12 1.12 1.03 0.90 0.81 0.88 1.00 0.94 0.81 0.88 0.87 0.84 0.63 0.56 0.58 0.58 0.50 0.34 0.30 0.42 0.48 0.41 0.44 0.52 0.59 0.60 0.68
0.91 1.17 1.33 1.36 1.34 1.30 1.17 0.96 0.83 0.74 0.74 0.78 0.84 0.80 0.86 0.96 0.97 1.05 1.02 0.97 0.99 1.01 1.00 0.90 0.83 0.89 0.77 0.62 0.49 0.43 0.43 0.42 0.40 0.36 0.27 0.29 0.39 0.38 0.34 0.39 0.45 0.48 0.55
1.60 2.04 2.28 2.27 2.12 1.80 1.51 1.32 1.18 1.10 1.05 0.93 0.86 0.75 0.64 0.70 0.76 0.83 0.79 0.82 0.83 0.86 0.85 0.77 0.69 0.70 0.69 0.66 0.59 0.47 0.50 0.48 0.44 0.44 0.39 0.34 0.34 0.34 0.47 0.48 0.46 0.42 0.47
2.79 3.32 3.26 2.85 2.54 2.02 1.56 1.34 1.31 1.35 1.27 1.11 0.99 0.85 0.70 0.65 0.68 0.74 0.72 0.70 0.67 0.67 0.66 0.60 0.59 0.59 0.58 0.57 0.50 0.46 0.45 0.44 0.40 0.38 0.44 0.36 0.37 0.33 0.39 0.41 0.39 0.37 0.42
3.33 4.01 3.97 3.33 2.64 2.12 1.78 1.55 1.39 1.34 1.22 1.06 0.97 0.84 0.69 0.61 0.60 0.59 0.56 0.52 0.48 0.46 0.45 0.46 0.51 0.53 0.48 0.46 0.34 0.32 0.33 0.28 0.28 0.31 0.29 0.23 0.26 0.27 0.30 0.31 0.31 0.25 0.32
2.65 3.11 3.14 2.52 2.02 1.71 1.43 1.07 0.91 0.88 0.80 0.71 0.69 0.64 0.60 0.56 0.51 0.46 0.40 0.39 0.35 0.32 0.32 0.32 0.35 0.38 0.35 0.34 0.32 0.26 0.21 0.18 0.18 0.20 0.17 0.14 0.16 0.25 0.29 0.27 0.24 0.31 0.33
1.66 1.75 1.38 1.10 0.92 0.78 0.68 0.51 0.41 0.37 0.35 0.34 0.34 0.35 0.33 0.36 0.40 0.38 0.36 0.35 0.33 0.30 0.26 0.27 0.28 0.26 0.24 0.24 0.23 0.18 0.13 0.12 0.12 0.09 0.13 0.13 0.13 0.23 0.28 0.25 0.23 0.28 0.26
1.04 0.90 0.61 0.47 0.47 0.41 0.33 0.25 0.22 0.21 0.21 0.21 0.21 0.22 0.22 0.23 0.26 0.29 0.32 0.35 0.34 0.30 0.27 0.26 0.24 0.21 0.18 0.16 0.16 0.13 0.09 0.06 0.06 0.07 0.10 0.13 0.13 0.17 0.17 0.19 0.20 0.19 0.23
0.47 0.48 0.51 0.52 0.41 0.30 0.26 0.19 0.14 0.13 0.13 0.13 0.14 0.15 0.17 0.16 0.16 0.18 0.23 0.29 0.29 0.30 0.29 0.22 0.21 0.24 0.21 0.14 0.13 0.12 0.08 0.08 0.10 0.08 0.10 0.13 0.16 0.15 0.13 0.12 0.12 0.15 0.19
0.28 0.47 0.68 0.66 0.45 0.31 0.27 0.23 0.21 0.19 0.18 0.17 0.17 0.18 0.20 0.20 0.20 0.17 0.17 0.22 0.26 0.32 0.36 0.32 0.29 0.26 0.23 0.17 0.14 0.16 0.13 0.08 0.11 0.13 0.10 0.11 0.15 0.09 0.06 0.05 0.04 0.07 0.11
0.26 0.33 0.42 0.49 0.56 0.51 0.46 0.37 0.34 0.33 0.31 0.28 0.26 0.25 0.25 0.26 0.28 0.27 0.27 0.29 0.33 0.32 0.33 0.34 0.36 0.33 0.29 0.25 0.17 0.17 0.22 0.13 0.07 0.11 0.11 0.12 0.12 0.04 0.04 0.07 0.08 0.11 0.15

GEFSSE_prec_meanprecacc_036.txt.gz
Total_Precipitation_Accumulation
0.00 0.00 0.00 0.00 0.00 0.00 0.00 0.00 0.01 0.01 0.00 0.01 0.01 0.01 0.01 0.01 0.01 0.00 0.00 0.00 0.00 0.01 0.01 0.01 0.02 0.02 0.02 0.01 0.01 0.02 0.02 0.02 0.02 0.02 0.03 0.05 0.06 0.07 0.08 0.11 0.24 0.26 0.17
0.00 0.00 0.00 0.00 0.00 0.00 0.00 0.00 0.01 0.01 0.00 0.00 0.01 0.01 0.01 0.01 0.01 0.00 0.00 0.00 0.00 0.01 0.01 0.02 0.02 0.02 0.02 0.01 0.01 0.00 0.00 0.01 0.00 0.01 0.03 0.04 0.06 0.09 0.08 0.08 0.21 0.26 0.12
0.00 0.00 0.00 0.00 0.00 0.00 0.00 0.00 0.00 0.00 0.00 0.00 0.00 0.00 0.01 0.01 0.00 0.00 0.00 0.00 0.00 0.01 0.01 0.02 0.02 0.02 0.01 0.01 0.00 0.00 0.00 0.00 0.00 0.01 0.04 0.07 0.04 0.08 0.10 0.06 0.07 0.07 0.06
0.00 0.00 0.00 0.00 0.00 0.00 0.00 0.00 0.00 0.00 0.00 0.00 0.00 0.00 0.00 0.00 0.00 0.01 0.01 0.01 0.01 0.02 0.02 0.02 0.02 0.02 0.01 0.00 0.00 0.00 0.00 0.01 0.01 0.02 0.15 0.30 0.20 0.05 0.06 0.03 0.02 0.03 0.04
0.00 0.00 0.00 0.00 0.00 0.00 0.00 0.00 0.00 0.00 0.00 0.00 0.00 0.00 0.00 0.01 0.01 0.01 0.01 0.01 0.01 0.02 0.03 0.03 0.03 0.02 0.01 0.01 0.00 0.00 0.00 0.01 0.01 0.03 0.12 0.27 0.32 0.13 0.04 0.02 0.02 0.02 0.02
0.00 0.00 0.00 0.00 0.00 0.00 0.00 0.00 0.00 0.00 0.00 0.00 0.00 0.00 0.01 0.01 0.02 0.02 0.02 0.02 0.02 0.03 0.04 0.03 0.02 0.02 0.01 0.01 0.00 0.00 0.00 0.00 0.01 0.04 0.08 0.10 0.18 0.16 0.07 0.03 0.01 0.01 0.01
0.00 0.00 0.00 0.01 0.00 0.00 0.00 0.00 0.00 0.00 0.00 0.00 0.00 0.00 0.01 0.01 0.01 0.02 0.02 0.02 0.02 0.02 0.03 0.02 0.02 0.02 0.02 0.02 0.02 0.02 0.01 0.00 0.01 0.04 0.08 0.09 0.12 0.12 0.12 0.07 0.03 0.02 0.01
0.00 0.00 0.00 0.01 0.01 0.01 0.01 0.00 0.00 0.01 0.01 0.01 0.00 0.00 0.00 0.01 0.01 0.01 0.02 0.01 0.01 0.02 0.02 0.02 0.01 0.01 0.01 0.02 0.03 0.04 0.04 0.02 0.01 0.03 0.06 0.10 0.19 0.17 0.23 0.19 0.09 0.04 0.04
0.01 0.00 0.01 0.01 0.02 0.02 0.01 0.01 0.01 0.01 0.01 0.01 0.00 0.00 0.00 0.00 0.00 0.01 0.01 0.02 0.02 0.02 0.02 0.01 0.02 0.01 0.01 0.02 0.03 0.03 0.03 0.02 0.01 0.02 0.03 0.06 0.15 0.23 0.43 0.42 0.28 0.17 0.13
0.02 0.01 0.01 0.02 0.03 0.04 0.04 0.03 0.02 0.02 0.02 0.01 0.01 0.01 0.01 0.00 0.00 0.00 0.01 0.02 0.03 0.03 0.03 0.03 0.02 0.02 0.03 0.05 0.06 0.08 0.10 0.05 0.01 0.02 0.01 0.03 0.13 0.30 0.52 0.57 0.50 0.43 0.33
0.04 0.03 0.04 0.06 0.08 0.09 0.09 0.10 0.10 0.09 0.08 0.06 0.04 0.02 0.01 0.01 0.02 0.05 0.08 0.10 0.11 0.12 0.12 0.12 0.11 0.11 0.11 0.07 0.14 0.21 0.16 0.03 0.01 0.02 0.01 0.04 0.15 0.39 0.51 0.59 0.56 0.53 0.51
0.07 0.10 0.08 0.09 0.10 0.12 0.13 0.22 0.25 0.24 0.27 0.23 0.20 0.21 0.19 0.15 0.10 0.10 0.22 0.28 0.37 0.47 0.43 0.40 0.54 0.47 0.28 0.15 0.26 0.38 0.19 0.09 0.05 0.04 0.04 0.08 0.18 0.39 0.50 0.49 0.50 0.51 0.54
0.12 0.12 0.10 0.10 0.12 0.14 0.20 0.25 0.28 0.30 0.41 0.47 0.53 0.59 0.61 0.52 0.38 0.31 0.45 0.58 0.60 0.63 0.51 0.66 0.90 0.58 0.43 0.39 0.41 0.44 0.35 0.28 0.18 0.17 0.17 0.18 0.28 0.51 0.60 0.47 0.47 0.50 0.46
0.20 0.21 0.21 0.17 0.16 0.18 0.22 0.24 0.24 0.24 0.30 0.40 0.58 0.77 0.89 0.83 0.69 0.69 0.75 0.63 0.58 0.60 0.75 0.80 0.87 0.70 0.59 0.54 0.54 0.60 0.68 0.53 0.36 0.33 0.39 0.46 0.51 0.63 0.68 0.58 0.54 0.51 0.46
0.38 0.50 0.53 0.48 0.42 0.36 0.30 0.27 0.24 0.24 0.26 0.35 0.51 0.79 0.99 1.01 1.01 1.08 0.94 0.79 0.63 0.81 1.06 1.07 0.95 0.95 0.94 0.99 0.99 1.00 0.95 0.65 0.45 0.38 0.45 0.67 0.68 0.68 0.74 0.75 0.71 0.64 0.63
0.64 0.83 0.87 0.94 0.90 0.75 0.58 0.47 0.47 0.47 0.51 0.60 0.68 0.81 1.02 1.10 1.13 1.13 1.05 0.94 0.88 1.00 1.16 1.18 1.12 1.25 1.24 1.17 0.91 0.76 0.75 0.74 0.64 0.48 0.47 0.59 0.65 0.57 0.61 0.71 0.73 0.70 0.74
1.04 1.32 1.49 1.51 1.46 1.38 1.22 0.99 0.85 0.76 0.76 0.80 0.86 0.82 0.88 0.97 0.98 1.06 1.03 0.98 1.02 1.08 1.11 1.09 1.09 1.23 1.16 1.02 0.83 0.71 0.67 0.64 0.64 0.56 0.46 0.48 0.57 0.59 0.52 0.56 0.60 0.61 0.63
1.69 2.14 2.38 2.36 2.18 1.83 1.52 1.33 1.19 1.10 1.06 0.94 0.87 0.76 0.65 0.71 0.77 0.83 0.80 0.82 0.87 0.93 0.93 0.89 0.90 0.98 1.01 1.06 1.01 0.83 0.81 0.75 0.70 0.71 0.67 0.58 0.57 0.55 0.66 0.68 0.64 0.56 0.59
2.82 3.35 3.30 2.88 2.56 2.04 1.57 1.34 1.32 1.36 1.27 1.11 0.99 0.86 0.70 0.65 0.69 0.74 0.72 0.70 0.69 0.72 0.73 0.70 0.75 0.82 0.86 0.90 0.87 0.84 0.78 0.72 0.65 0.64 0.76 0.65 0.62 0.63 0.68 0.66 0.64 0.56 0.56
3.34 4.03 3.98 3.34 2.65 2.12 1.78 1.55 1.39 1.34 1.22 1.06 0.97 0.85 0.70 0.62 0.61 0.59 0.57 0.53 0.50 0.51 0.54 0.57 0.64 0.72 0.74 0.77 0.72 0.70 0.66 0.56 0.52 0.52 0.49 0.47 0.49 0.50 0.58 0.64 0.58 0.45 0.49
2.65 3.12 3.14 2.52 2.02 1.71 1.43 1.07 0.91 0.88 0.80 0.71 0.69 0.64 0.61 0.56 0.52 0.47 0.41 0.39 0.35 0.34 0.36 0.38 0.46 0.53 0.56 0.62 0.68 0.62 0.53 0.45 0.41 0.40 0.35 0.30 0.32 0.42 0.51 0.61 0.60 0.53 0.43
1.66 1.75 1.38 1.10 0.92 0.78 0.68 0.51 0.41 0.37 0.35 0.34 0.35 0.35 0.33 0.37 0.40 0.39 0.37 0.36 0.34 0.33 0.31 0.34 0.39 0.42 0.45 0.51 0.54 0.48 0.40 0.36 0.30 0.23 0.26 0.25 0.24 0.37 0.47 0.49 0.51 0.50 0.40
1.04 0.90 0.61 0.47 0.47 0.41 0.33 0.25 0.22 0.21 0.21 0.21 0.22 0.22 0.22 0.23 0.26 0.29 0.33 0.36 0.35 0.31 0.29 0.30 0.32 0.32 0.32 0.35 0.41 0.41 0.33 0.25 0.21 0.20 0.22 0.22 0.22 0.27 0.32 0.43 0.43 0.34 0.35
0.47 0.48 0.51 0.52 0.41 0.30 0.26 0.19 0.14 0.13 0.13 0.13 0.15 0.15 0.17 0.16 0.16 0.18 0.24 0.29 0.30 0.31 0.30 0.24 0.24 0.29 0.29 0.26 0.27 0.30 0.25 0.23 0.24 0.23 0.22 0.23 0.26 0.25 0.24 0.29 0.33 0.32 0.29
0.28 0.47 0.68 0.66 0.45 0.31 0.27 0.23 0.21 0.19 0.18 0.17 0.17 0.18 0.20 0.20 0.20 0.17 0.17 0.22 0.27 0.33 0.38 0.34 0.31 0.29 0.27 0.23 0.23 0.29 0.27 0.20 0.21 0.24 0.23 0.22 0.24 0.17 0.14 0.15 0.16 0.20 0.20
0.26 0.33 0.42 0.49 0.56 0.51 0.46 0.37 0.34 0.33 0.31 0.28 0.26 0.25 0.25 0.26 0.28 0.27 0.27 0.30 0.33 0.33 0.34 0.36 0.39 0.37 0.35 0.31 0.24 0.26 0.38 0.33 0.20 0.22 0.22 0.24 0.22 0.10 0.09 0.13 0.15 0.16 0.20

GEFSSE_prec_meanprecacc_042.txt.gz
Total_Precipitation_Accumulation
0.00 0.00 0.00 0.00 0.00 0.00 0.00 0.00 0.01 0.01 0.00 0.01 0.01 0.01 0.01 0.01 0.01 0.00 0.00 0.00 0.00 0.01 0.01 0.01 0.02 0.03 0.02 0.02 0.02 0.02 0.02 0.02 0.02 0.02 0.03 0.06 0.08 0.09 0.11 0.17 0.30 0.31 0.30
0.00 0.00 0.00 0.00 0.00 0.00 0.00 0.00 0.01 0.01 0.00 0.01 0.01 0.01 0.01 0.01 0.01 0.00 0.00 0.00 0.00 0.01 0.01 0.02 0.02 0.02 0.02 0.01 0.01 0.01 0.01 0.01 0.01 0.02 0.05 0.07 0.11 0.15 0.12 0.12 0.24 0.31 0.22
0.00 0.00 0.00 0.00 0.00 0.00 0.00 0.00 0.00 0.00 0.00 0.00 0.00 0.00 0.01 0.01 0.01 0.00 0.00 0.00 0.00 0.01 0.01 0.02 0.02 0.02 0.01 0.01 0.00 0.00 0.00 0.00 0.01 0.02 0.06 0.09 0.09 0.15 0.13 0.08 0.09 0.11 0.12
0.00 0.00 0.00 0.00 0.00 0.00 0.00 0.00 0.00 0.00 0.00 0.00 0.00 0.00 0.00 0.00 0.00 0.01 0.01 0.01 0.01 0.02 0.02 0.02 0.02 0.02 0.01 0.00 0.00 0.00 0.01 0.01 0.02 0.03 0.16 0.31 0.21 0.08 0.08 0.04 0.03 0.06 0.07
0.00 0.00 0.00 0.00 0.00 0.00 0.00 0.00 0.00 0.00 0.00 0.00 0.00 0.00 0.01 0.01 0.01 0.01 0.01 0.01 0.02 0.03 0.03 0.03 0.03 0.03 0.01 0.01 0.00 0.00 0.01 0.01 0.02 0.04 0.12 0.27 0.32 0.15 0.05 0.03 0.03 0.03 0.03
0.00 0.00 0.00 0.00 0.00 0.00 0.00 0.00 0.00 0.01 0.01 0.01 0.01 0.01 0.01 0.01 0.02 0.02 0.02 0.02 0.02 0.04 0.04 0.04 0.04 0.03 0.02 0.01 0.00 0.00 0.00 0.01 0.02 0.04 0.08 0.10 0.18 0.17 0.08 0.04 0.02 0.02 0.02
0.00 0.00 0.00 0.01 0.01 0.00 0.00 0.00 0.00 0.01 0.01 0.01 0.01 0.01 0.01 0.01 0.02 0.02 0.03 0.02 0.02 0.03 0.04 0.04 0.04 0.04 0.04 0.03 0.03 0.02 0.01 0.01 0.01 0.04 0.08 0.09 0.12 0.14 0.13 0.07 0.03 0.02 0.02
0.00 0.00 0.01 0.01 0.01 0.01 0.01 0.01 0.01 0.01 0.01 0.01 0.01 0.01 0.01 0.01 0.02 0.02 0.03 0.03 0.03 0.03 0.03 0.03 0.04 0.03 0.03 0.04 0.05 0.05 0.04 0.03 0.02 0.03 0.07 0.11 0.20 0.19 0.25 0.19 0.09 0.04 0.04
0.01 0.01 0.01 0.02 0.02 0.02 0.01 0.01 0.01 0.01 0.01 0.01 0.01 0.01 0.01 0.01 0.01 0.01 0.02 0.03 0.03 0.03 0.03 0.04 0.03 0.03 0.04 0.05 0.06 0.05 0.05 0.04 0.02 0.03 0.04 0.07 0.16 0.26 0.47 0.43 0.28 0.17 0.13
0.03 0.01 0.02 0.03 0.04 0.04 0.04 0.03 0.03 0.03 0.02 0.02 0.01 0.01 0.01 0.01 0.01 0.01 0.01 0.03 0.04 0.05 0.06 0.06 0.06 0.06 0.08 0.09 0.10 0.11 0.12 0.07 0.02 0.02 0.02 0.05 0.14 0.33 0.58 0.61 0.52 0.43 0.33
0.04 0.04 0.06 0.08 0.10 0.10 0.10 0.11 0.12 0.12 0.12 0.08 0.05 0.04 0.03 0.02 0.03 0.06 0.10 0.13 0.15 0.18 0.20 0.19 0.20 0.20 0.21 0.15 0.18 0.25 0.19 0.05 0.02 0.02 0.02 0.04 0.16 0.42 0.58 0.66 0.60 0.55 0.52
0.12 0.17 0.17 0.18 0.17 0.17 0.18 0.27 0.31 0.31 0.35 0.30 0.26 0.25 0.22 0.17 0.12 0.12 0.24 0.35 0.45 0.57 0.56 0.55 0.72 0.65 0.43 0.24 0.33 0.44 0.23 0.11 0.06 0.05 0.05 0.08 0.19 0.43 0.59 0.60 0.59 0.57 0.56
0.23 0.22 0.21 0.24 0.27 0.30 0.35 0.41 0.43 0.44 0.58 0.67 0.71 0.71 0.69 0.57 0.42 0.35 0.49 0.63 0.66 0.73 0.61 0.79 1.08 0.75 0.61 0.54 0.52 0.51 0.41 0.32 0.19 0.18 0.17 0.19 0.29 0.54 0.69 0.60 0.59 0.60 0.52
0.33 0.36 0.39 0.38 0.40 0.42 0.46 0.46 0.44 0.43 0.51 0.60 0.76 0.93 1.01 0.92 0.76 0.75 0.80 0.68 0.63 0.66 0.81 0.88 0.96 0.82 0.76 0.72 0.69 0.70 0.74 0.57 0.38 0.34 0.39 0.47 0.52 0.65 0.76 0.71 0.67 0.64 0.58
0.56 0.70 0.74 0.70 0.67 0.60 0.53 0.50 0.47 0.45 0.44 0.47 0.62 0.92 1.09 1.10 1.08 1.14 0.98 0.83 0.66 0.85 1.09 1.10 1.01 1.04 1.06 1.13 1.13 1.12 1.04 0.70 0.47 0.40 0.46 0.68 0.70 0.71 0.81 0.86 0.86 0.80 0.78
0.82 1.03 1.06 1.13 1.10 0.91 0.73 0.62 0.59 0.56 0.60 0.68 0.76 0.88 1.07 1.14 1.17 1.17 1.09 0.96 0.91 1.03 1.19 1.20 1.14 1.29 1.31 1.26 1.01 0.86 0.83 0.81 0.67 0.50 0.49 0.61 0.68 0.62 0.68 0.81 0.87 0.86 0.90
1.19 1.47 1.63 1.65 1.59 1.48 1.29 1.05 0.88 0.80 0.79 0.84 0.88 0.83 0.89 0.98 1.00 1.08 1.05 1.00 1.03 1.09 1.11 1.09 1.09 1.24 1.19 1.06 0.88 0.79 0.77 0.74 0.71 0.61 0.50 0.51 0.61 0.64 0.61 0.65 0.72 0.74 0.79
1.78 2.24 2.47 2.43 2.23 1.87 1.55 1.34 1.20 1.12 1.07 0.95 0.87 0.76 0.65 0.71 0.78 0.84 0.80 0.83 0.87 0.93 0.93 0.89 0.91 0.98 1.02 1.08 1.04 0.90 0.91 0.88 0.80 0.79 0.74 0.64 0.62 0.60 0.74 0.79 0.77 0.69 0.76
2.87 3.39 3.34 2.91 2.58 2.04 1.57 1.35 1.32 1.36 1.27 1.11 0.99 0.86 0.71 0.66 0.69 0.74 0.72 0.70 0.69 0.72 0.73 0.70 0.75 0.82 0.86 0.92 0.90 0.89 0.87 0.83 0.75 0.74 0.84 0.72 0.69 0.70 0.76 0.78 0.81 0.73 0.78
3.37 4.04 3.99 3.35 2.65 2.12 1.78 1.55 1.39 1.34 1.22 1.06 0.97 0.85 0.70 0.62 0.61 0.59 0.57 0.53 0.50 0.51 0.54 0.57 0.64 0.72 0.74 0.80 0.76 0.76 0.75 0.67 0.63 0.62 0.58 0.55 0.58 0.57 0.65 0.73 0.71 0.60 0.70
2.66 3.12 3.14 2.52 2.02 1.71 1.43 1.07 0.91 0.88 0.80 0.71 0.69 0.64 0.61 0.56 0.52 0.47 0.41 0.39 0.35 0.34 0.36 0.39 0.46 0.53 0.57 0.64 0.71 0.69 0.62 0.58 0.55 0.52 0.46 0.41 0.41 0.50 0.59 0.69 0.70 0.64 0.54
1.66 1.75 1.38 1.10 0.92 0.78 0.68 0.51 0.41 0.37 0.35 0.34 0.35 0.35 0.33 0.37 0.40 0.39 0.37 0.36 0.34 0.33 0.31 0.34 0.39 0.43 0.45 0.52 0.58 0.56 0.50 0.47 0.43 0.36 0.40 0.38 0.36 0.47 0.56 0.56 0.58 0.60 0.49
1.04 0.90 0.61 0.47 0.47 0.41 0.33 0.25 0.22 0.21 0.21 0.21 0.22 0.22 0.22 0.23 0.26 0.29 0.33 0.36 0.35 0.31 0.29 0.30 0.32 0.32 0.33 0.37 0.45 0.49 0.42 0.36 0.32 0.29 0.30 0.31 0.33 0.38 0.42 0.51 0.49 0.41 0.43
0.47 0.48 0.51 0.52 0.41 0.30 0.26 0.19 0.14 0.13 0.13 0.13 0.15 0.15 0.17 0.16 0.16 0.18 0.24 0.29 0.30 0.31 0.30 0.24 0.24 0.29 0.29 0.26 0.30 0.36 0.32 0.31 0.35 0.34 0.31 0.31 0.34 0.34 0.33 0.37 0.40 0.38 0.36
0.28 0.47 0.68 0.66 0.45 0.31 0.27 0.23 0.21 0.19 0.18 0.17 0.17 0.18 0.20 0.20 0.20 0.17 0.17 0.22 0.27 0.33 0.38 0.34 0.31 0.29 0.28 0.24 0.24 0.32 0.32 0.25 0.29 0.34 0.34 0.31 0.31 0.23 0.21 0.23 0.23 0.27 0.27
0.26 0.33 0.42 0.49 0.56 0.51 0.46 0.37 0.34 0.33 0.31 0.28 0.26 0.25 0.25 0.26 0.28 0.27 0.27 0.30 0.33 0.33 0.34 0.36 0.39 0.37 0.35 0.31 0.24 0.27 0.40 0.36 0.25 0.28 0.29 0.30 0.28 0.15 0.15 0.19 0.21 0.22 0.27